Weather History for Grand Forks AFB, ND

Change the Weather History Date:

Thursday, May 2, 2013

  Actual Average Record
Temperature  
Mean Temperature 30 °F -  
Max Temperature 37 °F 60 °F 73 °F (1999)
Min Temperature 22 °F 37 °F 22 °F (2013)
Degree Days  
Heating Degree Days 36    
Moisture  
Dew Point 25 °F    
Average Humidity 85    
Maximum Humidity 100    
Minimum Humidity 56    
Precipitation  
Precipitation 0.00 in - - ()
Sea Level Pressure  
Sea Level Pressure 30.66 in    
Wind  
Wind Speed 5 mph (NNE)    
Max Wind Speed 13 mph    
Max Gust Speed -    
Visibility 9 miles    
Events Fog    
Averages and records for this station are not official NWS values.
T = Trace of Precipitation, MM = Missing Value Source: NWS Daily Summary

Daily Weather History Graph

Daily Weather History Graph

Search for Another Location

Airport:

Trip Planner

Search our weather history database for the weather conditions in past years. The results will help you decide how hot, cold, wet, or windy it might be!

Date:

Astronomy

May. 02, 2013 Rise Set
Actual Time 6:09 AM CDT 8:44 PM CDT
Civil Twilight 5:34 AM CDT 9:19 PM CDT
Nautical Twilight 4:50 AM CDT 10:03 PM CDT
Astronomical Twilight 3:59 AM CDT 10:55 PM CDT
Moon 2:30 AM CDT (5/2) 1:03 PM CDT (5/2)
Length of Visible Light 15h 44m
Length of Day
14h 35m
Waning Gibbous, 47% of the Moon is Illuminated
May 2
Waning Gibbous
May 9
New
May 17
First Quarter
May 24
Full
May 31
Last Quarter

Hourly Weather History & Observations

Time (CDT) Temp. Windchill Dew Point Humidity Pressure Visibility Wind Dir Wind Speed Gust Speed Precip Events Conditions
12:58 AM 24.8 °F 20.5 °F 24.3 °F 98% 30.68 in 10.0 mi NNE 3.5 mph - N/A   Clear
1:43 AM 23.0 °F 17.0 °F 23.0 °F 100% 30.62 in 8.0 mi NNE 4.6 mph - N/A   Clear
1:58 AM 23.5 °F 17.6 °F 22.8 °F 97% 30.68 in 1.2 mi NNE 4.6 mph - N/A   Clear
2:03 AM 23.0 °F 18.4 °F 23.0 °F 100% 30.63 in 0.8 mi NNE 3.5 mph - N/A   Clear
2:08 AM 23.0 °F 17.0 °F 21.2 °F 93% 30.63 in 0.5 mi NNE 4.6 mph - N/A Fog Light Freezing Fog
2:58 AM 22.6 °F 16.5 °F 21.9 °F 97% 30.70 in 10.0 mi North 4.6 mph - N/A   Clear
3:03 AM 23.0 °F 18.4 °F 23.0 °F 100% 30.63 in 8.0 mi North 3.5 mph - N/A   Clear
3:58 AM 23.9 °F - 23.4 °F 98% 30.70 in 8.0 mi NE 2.3 mph - N/A   Mostly Cloudy
4:08 AM 24.8 °F - 24.8 °F 100% 30.64 in 10.0 mi North 1.2 mph - N/A   Overcast
4:53 AM 26.6 °F - 26.6 °F 100% 30.66 in 10.0 mi North 2.3 mph - N/A   Overcast
4:58 AM 26.4 °F - 26.2 °F 99% 30.71 in 10.0 mi North 2.3 mph - N/A   Overcast
5:28 AM 28.4 °F 23.3 °F 28.4 °F 100% 30.66 in 10.0 mi NNE 4.6 mph - N/A   Overcast
5:58 AM 28.6 °F 23.5 °F 28.4 °F 99% 30.72 in 10.0 mi NNE 4.6 mph - N/A   Overcast
6:58 AM 28.9 °F 21.9 °F 28.8 °F 99% 30.74 in 10.0 mi NNE 6.9 mph - N/A   Overcast
7:25 AM 28.4 °F 22.2 °F 26.6 °F 93% 30.69 in 10.0 mi NNE 5.8 mph - N/A   Mostly Cloudy
7:34 AM 28.4 °F 21.2 °F 26.6 °F 93% 30.70 in 10.0 mi North 6.9 mph - N/A   Scattered Clouds
7:35 AM 28.4 °F 22.2 °F 26.6 °F 93% 30.69 in 10.0 mi North 5.8 mph - N/A   Scattered Clouds
7:55 AM 28.4 °F 21.2 °F 28.4 °F 100% 30.70 in 10.0 mi North 6.9 mph - N/A   Scattered Clouds
8:13 AM 30.2 °F 21.9 °F 26.6 °F 86% 30.71 in 10.0 mi North 9.2 mph - N/A   Mostly Cloudy
8:14 AM 32.0 °F 24.8 °F 26.6 °F 80% 30.70 in 10.0 mi North 8.1 mph - N/A   Mostly Cloudy
8:55 AM 32.0 °F 23.6 °F 23.0 °F 69% 30.71 in 10.0 mi North 10.4 mph - N/A   Overcast
9:55 AM 32.0 °F 23.6 °F 23.0 °F 69% 30.73 in 10.0 mi North 10.4 mph - N/A   Overcast
10:55 AM 32.5 °F 24.2 °F 22.3 °F 66% 30.72 in 10.0 mi North 10.4 mph - N/A   Overcast
11:55 AM 32.0 °F 24.2 °F 21.2 °F 64% 30.71 in 10.0 mi NNE 9.2 mph - N/A   Overcast
12:55 PM 33.8 °F 27.0 °F 23.0 °F 65% 30.69 in 10.0 mi North 8.1 mph - N/A   Overcast
1:55 PM 35.6 °F 27.1 °F 23.0 °F 60% 30.67 in 10.0 mi NNE 12.7 mph - N/A   Overcast
2:55 PM 37.4 °F 30.8 °F 23.0 °F 56% 30.65 in 10.0 mi NE 9.2 mph - N/A   Mostly Cloudy
3:55 PM 35.6 °F 29.2 °F 23.0 °F 60% 30.64 in 10.0 mi NNE 8.1 mph - N/A   Overcast
4:55 PM 35.6 °F 27.5 °F 24.8 °F 65% 30.62 in 10.0 mi NNE 11.5 mph - N/A   Overcast
5:55 PM 36.7 °F 28.4 °F 24.4 °F 61% 30.62 in 10.0 mi NE 12.7 mph - N/A   Scattered Clouds
6:58 PM 36.3 °F 28.4 °F 24.8 °F 63% 30.66 in 10.0 mi NNE 11.5 mph - N/A   Partly Cloudy
7:58 PM 34.5 °F 27.9 °F 24.8 °F 68% 30.60 in 10.0 mi NE 8.1 mph - N/A   Clear
8:58 PM 30.7 °F 24.9 °F 24.4 °F 77% 30.60 in 10.0 mi NE 5.8 mph - N/A   Clear
9:58 PM 27.3 °F - 24.6 °F 90% 30.59 in 10.0 mi NNE 2.3 mph - N/A   Clear
10:58 PM 26.8 °F 22.8 °F 25.9 °F 96% 30.57 in 10.0 mi North 3.5 mph - N/A   Clear
11:58 PM 23.2 °F - 22.5 °F 97% 30.56 in 6.0 mi North 2.3 mph - N/A   Clear